Regional Weather Roundup
Issued by NWS

Home | Current Version | Previous Version | Text Only | Print | Product List | Glossary Off
Versions: 1 2 3 4 5 6 7 8 9 10 11 12 13 14 15 16 17 18 19 20 21 22 23 24 25 26 27 28 29 30 31 32 33 34 35 36 37 38 39 40 41 42 43 44 45 46 47 48 49 50

000
ASUS43 KDMX 170807
RWRIA

WEATHER ROUNDUP FOR IOWA
NATIONAL WEATHER SERVICE DES MOINES IA
300 AM CDT WED SEP 17 2014

NOTE: "FAIR" INDICATES FEW OR NO CLOUDS BELOW 12,000 FEET WITH NO
SIGNIFICANT WEATHER AND/OR OBSTRUCTIONS TO VISIBILITY.

* - THESE STATIONS ARE NOT NWS STATIONS...THUS NOT UNDER NWS
QUALITY CONTROL.  THEY ALSO DO NOT REPORT WEATHER SUCH
AS PRECIPITATION OR FOG.

IAZ001>003-012>014-020>022-031>034-043>046-170900-
   NORTHWEST IOWA

CITY           SKY/WX    TMP DP  RH WIND       PRES   REMARKS
CARROLL *      CLOUDY    52  50  93 S5        29.99F
CHEROKEE *     CLOUDY    54  52  94 S5        29.98S
DENISON *      CLOUDY    57  52  82 SE3       29.97S
LE MARS *        N/A     57  52  82 CALM      29.96F
ORANGE CITY *  PTCLDY    57  48  72 SE5       29.96F
SHELDON *      PTCLDY    52  50  93 SE3       29.95F
SIOUX CITY     CLOUDY    58  53  84 SE6       29.96F
SPENCER        CLOUDY    54  48  80 CALM      29.98F
STORM LAKE *   CLEAR     50  50 100 S7        29.98F
$$

IAZ055>058-069>071-079>083-090>094-170900-
   SOUTHWEST IOWA

CITY           SKY/WX    TMP DP  RH WIND       PRES   REMARKS
ATLANTIC *     CLOUDY    59  54  82 S3        29.98F
AUDUBON *      CLOUDY    54  48  82 CALM      30.00F
CLARINDA *     CLOUDY    61  54  77 CALM      29.99F
COUNCIL BLFS * CLOUDY    59  55  88 SE6       29.96F
CRESTON *      CLOUDY    55  54  94 SE6       30.00F
HARLAN  *      CLOUDY    57  54  88 CALM      30.02S
LAMONI         CLOUDY    57  51  80 SE3       30.01F
SHENANDOAH *   CLOUDY    61  55  82 CALM      29.98F
$$

IAZ047>049-059>061-072>074-084-170900-
   CENTRAL IOWA

CITY           SKY/WX    TMP DP  RH WIND       PRES   REMARKS
AMES           PTCLDY    47  47 100 CALM      30.01F
ANKENY *       CLEAR     50  48  93 CALM      30.02S
CHARITON *     CLOUDY    54  52  94 SE5       30.02S
DES MOINES     CLOUDY    55  50  83 SE6       30.01F
GRINNELL*      PTCLDY    50  46  87 SE5       30.03F
KNOXVILLE *    CLOUDY    52  48  87 SE6       30.01F
MARSHALLTOWN   CLOUDY    53  48  83 SE5       30.01F
PELLA *        MOCLDY    50  48  93 CALM      30.03F
PERRY *        MOCLDY    50  50 100 SE3       30.01S
$$

IAZ004>006-015-016-023>025-035-036-170900-
   NORTH CENTRAL IOWA

CITY           SKY/WX    TMP DP  RH WIND       PRES   REMARKS
ALGONA *       MOCLDY    52  48  87 S5        30.00S
CLARION *        N/A     48  48 100 S5        30.00F
ESTHERVILLE    CLOUDY    52  50  93 S6        29.98F
FORT DODGE *   CLEAR     52  46  82 CALM      30.01S
MASON CITY     MOCLDY    45  44  97 CALM      30.03S
FOREST CITY *  CLOUDY    50  50 100 CALM      30.01S
IOWA FALLS *   MOCLDY    50  48  93 S5        30.02S
$$

IAZ007>011-017>019-026>030-037>042-050>054-066-170900-
   NORTHEAST IOWA

CITY           SKY/WX    TMP DP  RH WIND       PRES   REMARKS
CEDAR RAPIDS   MOCLDY    46  45  96 SE3       30.03F
CHARLES CITY * CLEAR     46  43  87 CALM      30.03S
CLINTON *      CLEAR     43  39  87 E6        30.08F
DECORAH *      CLEAR     46  45  93 CALM      30.02F
DUBUQUE        CLEAR     46  43  89 CALM      30.05F
MONTICELLO *   CLEAR     41  41 100 CALM      30.04F
OELWEIN *      PTCLDY    46  45  93 S6        30.02F
WATERLOO       PTCLDY    50  45  83 S6        30.01F
$$

IAZ064-065-067-068-078-170900-
   EAST CENTRAL IOWA

CITY           SKY/WX    TMP DP  RH WIND       PRES   REMARKS
DAVENPORT      CLEAR     46  42  86 SE3       30.05F
IOWA CITY      PTCLDY    48  47  96 CALM      30.05F
MT. PLEASANT * PTCLDY    48  46  93 SE5       30.04F
MUSCATINE *    MOCLDY    46  45  93 CALM      30.05F
QUAD CITIES    CLEAR     45  43  93 CALM      30.05F
$$

IAZ062-063-075>077-085>089-095>099-170900-
   SOUTHEAST IOWA

CITY           SKY/WX    TMP DP  RH WIND       PRES   REMARKS
BURLINGTON     PTCLDY    49  48  97 S3        30.04F
FAIRFIELD *    MOCLDY    50  46  87 S6        30.04S
FORT MADISON * CLEAR     52  48  87 S5        30.05F
KEOKUK *       CLEAR     50  48  93 CALM      30.04F
OSKALOOSA *      N/A     50  48  93 SE6       30.03F
CENTERVILLE *  MOCLDY    52  52 100 SE3       30.04S
OTTUMWA        PTCLDY    50  47  89 S3        30.03F
WASHINGTON *   CLEAR     45  45 100 CALM      30.04F
$$

ABBREVIATIONS USED IN REMARKS
   TC - TEMPERATURES IN CELSIUS
  WCI - WIND CHILL INDEX
   HX - HEAT INDEX
  VSB - VISIBILITY
$$



USA.gov is the U.S. government's official web portal to all federal, state and local government web resources and services.